When you browse on this site, cookies collect data to enhance your experience and personalize the content and advertising you see.
Visit our Privacy Policy to learn more. By continuing to use the site, you agree to this use of cookies and data.
  • In Portugal
  • List of Countries
  • For 7 days
  • Water Temperature
  • Weather Map
  • Weather Widgets
  • user-avatar
    Login

    Hourly Weather Ali Bayramli

    Today, 26 February, Wednesday

    Time Temperature Precipitation Wind Pressure Humidity
    00:00 +7°C° 0 mm 2 mps 762 mmHg 56%
    01:00 +7°C° 0 mm 2 mps 762 mmHg 57%
    02:00 +5°C° 0 mm 3 mps 763 mmHg 58%
    03:00 +5°C° 0 mm 3 mps 763 mmHg 60%
    04:00 +6°C° 0 mm 2 mps 763 mmHg 61%
    05:00 +6°C° 0 mm 2 mps 763 mmHg 62%
    06:00 +6°C° 0 mm 2 mps 764 mmHg 63%
    07:00 +7°C° 0 mm 2 mps 764 mmHg 58%
    08:00 +7°C° 0 mm 3 mps 765 mmHg 53%
    09:00 +7°C° 0 mm 4 mps 766 mmHg 47%
    10:00 +9°C° 0 mm 3 mps 765 mmHg 45%
    11:00 +9°C° 0 mm 3 mps 765 mmHg 42%
    12:00 +10°C° 0 mm 2 mps 765 mmHg 40%
    13:00 +10°C° 0 mm 3 mps 765 mmHg 39%
    14:00 +11°C° 0 mm 3 mps 764 mmHg 39%
    15:00 +11°C° 0 mm 3 mps 764 mmHg 39%
    16:00 +10°C° 0 mm 4 mps 764 mmHg 43%
    17:00 +8°C° 0 mm 4 mps 764 mmHg 47%
    18:00 +8°C° 0 mm 5 mps 764 mmHg 51%
    19:00 +7°C° 0 mm 5 mps 765 mmHg 57%
    20:00 +7°C° 0 mm 5 mps 765 mmHg 62%
    21:00 +6°C° 0 mm 4 mps 765 mmHg 67%
    22:00 +6°C° 0 mm 4 mps 765 mmHg 70%
    23:00 +5°C° 0 mm 4 mps 764 mmHg 73%

    Tomorrow, 27 February, Thursday

    Time Temperature Precipitation Wind Pressure Humidity
    00:00 +5°C° 0 mm 4 mps 764 mmHg 76%
    01:00 +5°C° 0 mm 4 mps 763 mmHg 79%
    02:00 +4°C° 0 mm 4 mps 763 mmHg 81%
    03:00 +4°C° 0 mm 3 mps 763 mmHg 83%
    04:00 +4°C° 0 mm 3 mps 763 mmHg 84%
    05:00 +4°C° 0 mm 3 mps 763 mmHg 85%
    06:00 +4°C° 0 mm 3 mps 763 mmHg 85%
    07:00 +5°C° 0 mm 4 mps 763 mmHg 78%
    08:00 +7°C° 0 mm 4 mps 763 mmHg 71%
    09:00 +8°C° 0 mm 5 mps 763 mmHg 64%
    10:00 +9°C° 0 mm 5 mps 763 mmHg 58%
    11:00 +12°C° 0 mm 5 mps 763 mmHg 53%
    12:00 +13°C° 0 mm 5 mps 762 mmHg 48%
    13:00 +13°C° 0 mm 6 mps 762 mmHg 49%
    14:00 +13°C° 0 mm 6 mps 761 mmHg 50%
    15:00 +13°C° 0 mm 6 mps 761 mmHg 52%
    16:00 +11°C° 0 mm 6 mps 760 mmHg 57%
    17:00 +10°C° 0 mm 6 mps 760 mmHg 63%
    18:00 +9°C° 0 mm 6 mps 760 mmHg 68%
    19:00 +8°C° 0 mm 5 mps 760 mmHg 72%
    20:00 +7°C° 0 mm 4 mps 760 mmHg 75%
    21:00 +8°C° 0 mm 3 mps 760 mmHg 79%
    22:00 +7°C° 0 mm 3 mps 759 mmHg 82%
    23:00 +7°C° 0 mm 3 mps 759 mmHg 84%

    Day after tomorrow, 28 February, Friday

    Time Temperature Precipitation Wind Pressure Humidity
    00:00 +7°C° 0 mm 2 mps 758 mmHg 87%
    01:00 +7°C° 0 mm 2 mps 757 mmHg 89%
    02:00 +6°C° 0 mm 2 mps 757 mmHg 90%
    03:00 +6°C° 0 mm 2 mps 756 mmHg 92%
    04:00 +6°C° 0 mm 2 mps 756 mmHg 92%
    05:00 +6°C° 0 mm 2 mps 756 mmHg 92%
    06:00 +6°C° 0 mm 1 mps 755 mmHg 92%
    07:00 +7°C° 0 mm 2 mps 755 mmHg 84%
    08:00 +8°C° 0 mm 2 mps 755 mmHg 76%
    09:00 +9°C° 0 mm 2 mps 755 mmHg 68%
    10:00 +11°C° 0 mm 3 mps 754 mmHg 59%
    11:00 +13°C° 0 mm 3 mps 754 mmHg 50%
    12:00 +14°C° 0 mm 4 mps 753 mmHg 41%
    13:00 +15°C° 0 mm 4 mps 753 mmHg 38%
    14:00 +16°C° 0 mm 5 mps 753 mmHg 35%
    15:00 +17°C° 0 mm 5 mps 752 mmHg 32%
    16:00 +16°C° 0 mm 5 mps 752 mmHg 35%
    17:00 +15°C° 0 mm 5 mps 753 mmHg 39%
    18:00 +14°C° 0 mm 4 mps 753 mmHg 42%
    19:00 +13°C° 0 mm 3 mps 754 mmHg 45%
    20:00 +13°C° 0 mm 2 mps 754 mmHg 48%
    21:00 +12°C° 0 mm 1 mps 755 mmHg 50%
    22:00 +12°C° 0 mm 1 mps 756 mmHg 50%
    23:00 +12°C° 0 mm 2 mps 756 mmHg 51%

    29 February, Saturday

    Time Temperature Precipitation Wind Pressure Humidity
    00:00 +11°C° 0 mm 3 mps 757 mmHg 51%
    01:00 +11°C° 0 mm 3 mps 757 mmHg 53%
    02:00 +11°C° 0 mm 3 mps 758 mmHg 56%
    03:00 +10°C° 0 mm 4 mps 758 mmHg 58%
    04:00 +10°C° 0 mm 4 mps 759 mmHg 62%
    05:00 +9°C° 0 mm 3 mps 759 mmHg 65%
    06:00 +9°C° 0 mm 3 mps 759 mmHg 68%
    07:00 +10°C° 0 mm 3 mps 760 mmHg 64%
    08:00 +11°C° 0 mm 4 mps 760 mmHg 61%
    09:00 +12°C° 0 mm 4 mps 760 mmHg 58%
    10:00 +12°C° 0 mm 4 mps 759 mmHg 55%
    11:00 +13°C° 0 mm 4 mps 758 mmHg 51%
    12:00 +14°C° 0 mm 4 mps 758 mmHg 48%
    13:00 +14°C° 0 mm 5 mps 757 mmHg 48%
    14:00 +14°C° 0 mm 5 mps 756 mmHg 47%
    15:00 +14°C° 0 mm 5 mps 756 mmHg 47%
    16:00 +13°C° 0 mm 5 mps 755 mmHg 51%
    17:00 +12°C° 0 mm 5 mps 755 mmHg 54%
    18:00 +11°C° 0 mm 4 mps 755 mmHg 58%
    19:00 +10°C° 0 mm 4 mps 755 mmHg 62%
    20:00 +10°C° 0 mm 4 mps 755 mmHg 67%
    21:00 +9°C° 0 mm 3 mps 754 mmHg 71%
    22:00 +9°C° 0 mm 3 mps 754 mmHg 73%
    23:00 +9°C° 0 mm 2 mps 754 mmHg 76%

    1 March, Sunday

    Time Temperature Precipitation Wind Pressure Humidity
    00:00 +8°C° 0 mm 2 mps 753 mmHg 79%
    01:00 +8°C° 0 mm 2 mps 753 mmHg 81%
    02:00 +8°C° 0 mm 2 mps 752 mmHg 83%
    03:00 +9°C° 0 mm 1 mps 752 mmHg 85%
    04:00 +9°C° 0 mm 1 mps 752 mmHg 85%
    05:00 +9°C° 0 mm 1 mps 753 mmHg 85%
    06:00 +8°C° 0 mm 2 mps 753 mmHg 85%
    07:00 +8°C° 0 mm 2 mps 753 mmHg 82%
    08:00 +9°C° 0 mm 3 mps 754 mmHg 78%
    09:00 +9°C° 0 mm 3 mps 755 mmHg 74%
    10:00 +9°C° 0.2 mm 3 mps 755 mmHg 75%
    11:00 +8°C° 0.2 mm 4 mps 755 mmHg 76%
    12:00 +8°C° 0.2 mm 4 mps 756 mmHg 77%
    13:00 +9°C° 0.1 mm 3 mps 756 mmHg 76%
    14:00 +9°C° 0.1 mm 3 mps 756 mmHg 75%
    15:00 +9°C° 0.1 mm 2 mps 756 mmHg 74%
    16:00 +9°C° 0 mm 2 mps 756 mmHg 73%
    17:00 +9°C° 0 mm 3 mps 757 mmHg 72%
    18:00 +9°C° 0 mm 3 mps 757 mmHg 71%
    19:00 +8°C° 0 mm 4 mps 758 mmHg 69%
    20:00 +8°C° 0 mm 4 mps 759 mmHg 67%
    21:00 +7°C° 0 mm 5 mps 760 mmHg 66%
    22:00 +7°C° 0 mm 4 mps 760 mmHg 67%
    23:00 +7°C° 0 mm 4 mps 760 mmHg 68%

    2 March, Monday

    Time Temperature Precipitation Wind Pressure Humidity
    00:00 +7°C° 0 mm 3 mps 760 mmHg 69%
    01:00 +7°C° 0 mm 3 mps 760 mmHg 71%
    02:00 +5°C° 0 mm 3 mps 760 mmHg 74%
    03:00 +5°C° 0 mm 4 mps 760 mmHg 76%
    04:00 +5°C° 0 mm 4 mps 760 mmHg 75%
    05:00 +5°C° 0 mm 3 mps 761 mmHg 74%
    06:00 +4°C° 0 mm 3 mps 761 mmHg 73%
    07:00 +5°C° 0 mm 4 mps 761 mmHg 70%
    08:00 +6°C° 0 mm 4 mps 762 mmHg 66%
    09:00 +7°C° 0 mm 4 mps 762 mmHg 62%
    10:00 +6°C° 0.1 mm 4 mps 762 mmHg 65%
    11:00 +6°C° 0.1 mm 5 mps 762 mmHg 68%
    12:00 +6°C° 0.1 mm 5 mps 762 mmHg 71%
    13:00 +5°C° 0.1 mm 6 mps 762 mmHg 72%
    14:00 +5°C° 0.1 mm 6 mps 762 mmHg 73%
    15:00 +5°C° 0.1 mm 6 mps 762 mmHg 73%
    16:00 +5°C° 0 mm 6 mps 762 mmHg 72%
    17:00 +5°C° 0 mm 5 mps 763 mmHg 72%
    18:00 +5°C° 0 mm 4 mps 763 mmHg 71%
    19:00 +5°C° 0 mm 4 mps 763 mmHg 74%
    20:00 +4°C° 0 mm 3 mps 764 mmHg 76%
    21:00 +4°C° 0 mm 3 mps 764 mmHg 78%
    22:00 +4°C° 0 mm 3 mps 764 mmHg 79%
    23:00 +4°C° 0 mm 2 mps 764 mmHg 81%
    Show more